sat.trackr.live / text

‹ back to catalog

STARLINK-1817

NORAD 46715 · 2020-073AX

PAYLOAD ACTIVE UNKNOWN

§ Identity

Operator
Country
US
Launch date
2020-10-18
Launch site
AFETR
Launch vehicle
Mass (kg)
RCS (m²)

Purposes: comms

External: N2YO · Heavens-Above · Gunter

§ Orbital elements

Epoch: 2026-07-18T16:45:47.814048Z

Period
87.66 min
Inclination
53.0248°
Eccentricity
0.0007004
Mean motion
16.42774017 rev/d
Perigee alt
153.9 km
Apogee alt
163.0 km
Semi-major
6,536.6 km
B*
4.2057e-4
RAAN
279.6772°
Arg perigee
303.1626°
Mean anomaly
56.8749°
Rev number
31,818

§ Raw data

STARLINK-18171 46715U 20073AX  26199.69847007  .09017559  12503-4  42057-3 0  99952 46715  53.0248 279.6772 0007004 303.1626  56.8749 16.42774017318188

JSON: /api/v1/satellites/46715 · /tle

For live sub-satellite position, see the globe view (requires WebGL).

§ Visibility from observer

Set your observer location to see the next 7 days of passes ≥ 10°. The values pass through the URL so the page stays shareable.

No JS? Fill the form by hand. The geolocation button needs JavaScript.